weather.gov     
National Weather Service

Terminal Aerodrome Forecast
NWS Homepage
This page is being discontinued on March 12, 2014.
The same data is available at this site. Please update your bookmarks.
Thank you, and we apologize for the inconvenience.
Please send an email to SR-SRH.Webmaster@noaa.gov with any concerns.


Current Version
Previous Version:    01  02  03  04  05  06  07  08  09  10  11  12  13  14  15  16  17  18  19  20  21  22  23  24  25  26  27  28  29  
[Printable]
958
FTAK31 PAJN 011700
TAFASI
TAF
PASI 011722Z 0118/0218 25005KT P6SM VCSH FEW020 SCT040 BKN060
      TEMPO 0118/0121 5SM -SHRA SCT010 BKN015 OVC035
     FM012100 28007KT P6SM VCSH SCT030 BKN050
     FM020500 31005KT P6SM SCT050 BKN070
     FM021200 02004KT P6SM SCT070 SCT100=


U.S. Dept. of Commerce
NOAA National Weather Service
1325 East West Highway
Silver Spring, MD 20910
E-mail: w-nws.webmaster@noaa.gov
Page last modified: May 16, 2007
NATIONAL WEATHER SERVICE: for Safety, for Work, for Fun - FOR LIFE